International Virtual Aviation Organisation

Russian Federation and Kazakhstan MCD

 

Карточка аэропорта UAKK

Внимание!
Информация на этой странице в стадии наполнения.
Если вы не увидели какой-то информации, или заметили неточность - пожалуйста сообщите нам!
Спасибо!
Команда RU-STAFF
Название аэропортаКараганда
Название аэропорта (англ.)Karaganda
Превышение1768 ft. (538.9 m.)
Координаты49°40.302', 73°20.118'
Высота перехода10000
Эшелон переходаby ATC
Коды ответчика0630-0637, 7220-7227
Зона ОрВДНур-Султан РПИ (UACN)
Данные METARUAKK 282130Z 23003MPS CAVOK M05/M07 Q1027 R23/1///65 NOSIG RMK QFE723/0964
Проноз погоды (TAF)UAKK 281700Z 2818/2918 VRB02MPS 9999 BKN015 BKN030 TX05/2910Z TNM12/2901Z BECMG 2820/2822 3100 BR BKN005 TEMPO 2820/2903 0400 FZFG VV002 BECMG 2904/2906 9999 NSW SCT020 BKN100
NOTAMshow/hide NOTAM
AWOS   TABLE

Информация о ВПП

ВПП Длина ВПП (м.) Покрытие Курс ВПП Частота ILS
053601Железобетон50109.9
233601Железобетон230111.7

Диспетчерские позиции




Спутниковое изображение